Starlink 11623

operational
NORAD ID: 63276 Int'l Des: 2025-053 Owner: SPXS Country: US Constellation: starlink
LEOCIRCULAR

Über Starlink 11623

Beschreibung wird geladen...

Live-Position

3D-Globus wird geladen...

Nächste Überflüge

Höhenverlauf

Altitude vs Time

uPlot chart will show altitude changes over time

Zweizeiliger Elementsatz

1 63276U 25053M 25306.31944969 .00225933 00000-0 17065-2 0 9995
2 63276 43.0000 160.3187 0001995 280.9589 79.1054 15.70982773 37627
Epoch: 2. Nov. 2025 • Age: 40 hours

Aktueller Status

Höhe 352.8 km
Geschwindigkeit 7.70 km/s
Subsatellitenpunkt 10.90°N, 127.75°E
Startdatum 15. März 2025
Alter 0.6 years
Typ internet

Technische Details

Klassifizierung Payload
Masse 960.00 kg
Trockenmasse 910.00 kg
Gesamtmasse 960.00 kg
Länge 0.30 m
Durchmesser 4.10 m
Spannweite 29.00 m
Form Box + pan
Hersteller SPXS
Bus-Typ Starlink V2MD
Phasenstatus In Orbit
Besitzer/Staat SPXS/US

Große Konstellationen

Loading constellations...